Tracking 25711 objects as of 22-May-2022
HD Live streaming from Space Station
objects crossing your sky now

LEMUR 2 ORZULAK

Track LEMUR 2 ORZULAK now!
10-day predictions
LEMUR 2 ORZULAK is classified as:


NORAD ID: 43731
Int'l Code: 2018-096N
Perigee: 437.5 km
Apogee: 458.9 km
Inclination: 97.4 °
Period: 93.4 minutes
Semi major axis: 6819 km
RCS: Unknown
Launch date: November 29, 2018
Source: United States (US)
Launch site: SRIHARIKOTA (SRI)
aabbcc
Your satellite tracking list
Your tracking list is empty




NASA's NSSDC Master Catalog

Two Line Element Set (TLE):
1 43731U 18096N   22142.45848769  .00062195  00000-0  14596-2 0  9994
2 43731  97.3633 227.1350 0015694 144.1166 216.1138 15.41703585194240
Source of the keplerian elements: AFSPC